Temp
24 24 25 28 34 35 33 32 34 32 32 31 31 31 30 29 30 27 25 23 22 22 22 22 21 21 22 22 22 22 21 21 21 21 21 21 21 21 20 21 21 21 21 21 21 21 21 21 21
26 25 28 35 35 34 33 34 32 33 32 32 30 29 30 28 29 28 27 24 23 25 25 23 21 21 21 22 22 21 21 21 21 21 21 21 21 21 21 21 21 21 21 21 21 22 21 21 21
26 26 34 35 35 33 32 33 33 32 33 32 30 29 28 27 29 28 26 25 25 25 24 22 21 21 21 21 21 21 21 21 21 21 21 21 21 21 21 21 22 21 21 22 22 22 22 22 21
28 32 36 35 33 34 33 33 33 32 32 32 32 29 27 27 28 27 25 25 25 25 25 21 21 21 21 21 21 21 21 21 21 21 21 21 21 21 21 21 21 21 21 22 22 22 22 22 21
30 35 35 34 33 34 34 33 34 33 32 32 32 30 27 26 26 25 25 26 26 26 24 22 22 22 21 21 21 21 21 21 21 21 21 21 21 21 21 21 21 21 22 22 22 22 22 22 21
36 36 35 33 33 33 34 34 34 33 32 31 30 30 29 26 26 26 26 26 26 25 25 23 21 21 21 21 21 21 21 21 21 21 21 21 21 21 21 21 21 21 21 21 22 21 22 22 21
36 37 35 34 33 33 33 34 34 33 32 31 32 30 29 28 26 26 26 26 25 25 25 24 23 22 21 21 21 21 21 21 21 21 21 21 21 21 21 21 21 21 21 21 21 21 21 21 21
37 38 35 35 34 32 33 33 34 34 31 32 33 29 29 29 27 27 26 27 26 26 25 24 25 24 24 23 21 21 21 21 21 21 21 21 22 21 21 22 22 21 21 21 21 21 21 21 21
36 37 35 34 35 33 34 33 33 34 33 33 32 32 31 28 27 28 27 26 26 25 26 26 25 25 24 24 23 22 22 21 22 22 22 23 24 24 23 23 22 21 21 21 21 21 22 21 21
38 36 34 35 35 35 34 34 33 33 32 31 31 31 29 28 28 28 28 28 27 26 25 27 26 25 24 25 24 24 24 25 24 24 22 22 23 23 23 23 22 21 22 22 21 21 21 22 22
36 35 34 34 35 36 34 34 34 33 33 33 31 30 29 28 29 29 29 29 29 27 26 26 25 24 25 25 24 25 25 25 23 23 22 23 23 24 23 23 22 22 22 22 22 22 23 24 24
35 35 35 34 34 35 34 35 34 34 34 34 32 31 30 30 30 30 30 29 28 27 27 26 25 24 24 25 24 25 25 25 25 24 22 23 23 23 22 23 23 23 22 23 24 23 23 23 23
36 35 35 35 34 35 34 34 34 34 34 34 32 31 31 32 31 31 30 30 28 27 27 27 25 24 24 23 25 25 25 25 25 24 24 24 23 22 23 23 24 24 24 24 24 23 22 22 23
36 37 35 35 35 34 35 34 34 33 33 33 32 32 32 32 31 30 30 29 29 28 28 27 26 25 24 24 23 24 24 25 25 25 25 23 23 23 23 23 24 25 25 24 24 24 24 24 24
36 37 36 36 35 34 35 33 34 33 33 32 32 32 33 32 31 31 30 30 29 28 28 28 27 26 24 24 24 25 25 26 25 25 24 24 23 23 23 24 25 26 24 24 24 23 24 25 25
37 38 36 36 35 34 35 33 33 33 33 32 33 32 32 33 32 31 30 30 29 29 28 27 27 27 25 25 24 25 26 26 26 26 25 24 23 24 24 24 25 25 25 25 25 25 25 23 24
38 37 36 37 36 36 36 34 33 34 34 33 33 33 32 33 32 31 31 30 30 29 28 27 27 27 27 25 25 25 25 25 26 26 26 25 25 24 24 26 25 24 25 26 26 26 25 25 23
37 37 36 36 37 36 36 36 33 33 34 34 33 33 32 33 33 32 31 30 30 29 28 27 27 27 26 26 24 25 26 26 26 26 26 24 25 24 24 25 25 24 26 26 26 25 25 25 22
38 37 37 37 36 36 36 37 35 33 34 34 34 33 33 33 34 32 31 31 30 29 28 27 27 26 25 26 26 26 27 27 27 26 25 24 24 24 24 26 24 25 25 25 24 25 24 25 23
38 38 38 37 36 36 37 37 37 35 34 34 34 34 34 34 34 33 32 31 30 30 29 28 27 26 25 27 26 27 27 27 27 27 25 25 25 24 25 25 24 25 26 24 24 24 26 26 25
38 38 38 37 37 37 37 38 37 36 35 35 35 35 35 35 35 35 33 32 31 30 29 28 27 27 26 27 26 25 26 25 26 26 26 26 25 25 24 24 24 24 24 26 24 24 25 26 25
38 39 37 37 37 37 38 38 37 36 35 35 35 35 35 35 35 36 35 34 33 32 30 29 27 27 26 26 27 26 27 28 28 28 28 27 25 25 25 24 24 24 25 25 25 25 26 25 27
38 38 38 37 38 38 38 38 38 37 36 36 35 36 37 36 36 36 36 35 34 33 32 30 28 27 27 26 26 26 26 28 28 27 27 26 25 25 25 24 24 24 25 24 24 24 23 25 27
38 37 37 38 38 37 39 38 39 39 38 38 38 36 37 37 37 37 35 35 34 33 31 30 28 26 26 25 25 26 27 27 27 27 27 28 27 26 25 24 24 24 24 24 24 23 23 24 25
36 37 36 36 37 37 39 37 40 40 39 38 38 38 37 38 38 37 37 35 34 33 31 30 28 26 25 25 26 25 25 25 26 26 27 28 28 28 26 24 24 24 23 23 23 23 23 23 24
36 38 37 34 36 38 37 37 39 39 39 38 37 39 38 38 38 37 37 36 34 33 31 30 28 26 26 26 26 25 25 26 26 26 28 28 28 28 26 25 25 24 23 23 23 24 24 23 23
37 36 40 38 38 37 39 38 40 40 39 38 38 38 38 38 38 38 37 36 35 33 31 30 29 27 26 27 26 25 25 25 27 27 27 27 27 27 25 25 24 24 23 23 23 24 23 23 22
37 39 37 38 35 35 38 37 38 39 40 38 38 38 38 38 38 38 37 36 35 34 32 30 29 27 27 27 26 26 26 25 25 26 26 26 27 26 25 25 25 24 23 23 22 24 23 22 23
36 37 37 39 38 37 36 38 41 40 40 39 37 36 37 38 38 38 38 35 35 34 33 31 29 26 24 28 27 26 26 26 25 26 26 25 26 25 25 25 24 24 24 23 23 23 24 22 22
39 38 39 37 36 37 37 37 41 39 38 37 37 36 36 36 37 37 37 35 34 33 32 30 28 25 29 31 28 29 25 26 27 26 26 26 26 25 25 25 24 24 24 23 23 23 24 22 22
Height
764 765 764 759 762 758 781 785 768 782 781 780 779 783 794 796 797 823 820 826 831 833 834 834 834 834 837 836 838 840 841 841 842 843 846 847 847 848 850 851 852 853 853 854 855 855 856 857 858
765 766 762 744 764 784 790 772 781 776 776 778 786 790 793 809 800 810 820 829 832 832 833 835 837 838 840 839 839 841 842 844 845 845 847 849 850 849 851 852 853 854 855 856 856 858 858 858 859
766 765 753 758 771 788 793 776 778 778 776 778 790 792 800 813 811 813 823 828 830 833 835 837 840 840 842 840 842 843 843 845 847 847 849 850 850 851 852 853 853 855 855 856 857 858 859 858 859
765 758 749 768 788 778 780 780 777 782 780 780 784 802 808 813 815 817 826 829 831 834 836 839 841 842 843 844 845 845 846 848 849 849 849 852 851 852 853 854 854 855 856 856 858 858 858 859 860
764 750 770 783 788 779 774 774 773 781 783 785 785 803 811 818 819 823 828 829 831 834 838 841 843 844 844 845 846 847 849 849 851 850 851 852 853 854 853 854 856 855 856 857 858 858 859 859 861
756 751 777 794 793 783 776 773 774 780 785 790 794 802 810 818 821 825 828 831 834 836 839 842 844 845 846 846 847 849 850 851 852 852 853 853 853 854 853 854 856 856 856 857 858 858 859 859 861
758 762 782 785 793 790 784 772 777 782 786 791 791 805 811 816 822 826 827 831 835 838 840 843 844 846 846 848 849 850 851 851 852 853 854 853 854 855 854 855 856 857 858 858 858 859 859 860 862
754 756 779 779 788 799 781 779 776 780 792 789 791 810 813 812 820 825 829 832 835 838 841 843 844 845 847 849 849 851 852 852 852 853 854 854 854 855 855 855 857 858 859 859 860 860 860 861 863
754 766 787 789 783 790 780 786 780 779 787 788 791 793 804 814 820 824 829 833 836 838 839 841 843 845 847 849 850 852 852 852 852 853 854 855 855 855 856 856 858 856 858 859 860 861 861 861 863
754 774 789 777 775 781 779 781 785 787 791 797 796 799 808 816 820 823 826 829 832 837 839 840 842 845 847 849 850 852 852 852 853 854 854 855 855 855 855 856 857 858 857 858 860 861 861 862 862
763 783 778 780 774 770 779 782 778 787 793 788 799 803 811 815 818 820 823 826 828 834 838 840 843 846 847 848 850 851 851 851 853 854 855 855 854 854 854 855 855 856 857 857 858 860 861 861 861
778 772 773 777 776 774 781 775 783 782 783 781 793 801 809 813 815 817 820 825 829 833 836 839 842 845 846 848 849 850 850 851 852 853 853 855 854 853 853 853 854 856 856 857 857 859 859 860 860
772 773 772 773 775 775 777 782 782 786 782 786 795 803 807 810 813 816 820 824 829 832 835 838 841 844 846 847 848 849 850 851 851 853 854 854 854 853 854 854 854 855 856 856 856 858 858 858 859
766 767 773 773 775 778 781 784 782 787 786 792 797 801 804 807 811 816 820 824 827 831 833 836 840 843 845 846 847 849 850 850 852 853 853 853 854 854 855 854 854 854 855 855 857 858 857 857 857
766 775 772 774 776 782 776 796 791 785 789 795 798 800 802 805 809 813 818 822 826 830 832 835 839 841 844 845 847 848 849 850 851 852 853 854 854 854 854 854 854 854 855 856 857 857 857 856 856
770 768 790 776 775 779 780 804 788 785 791 795 797 800 803 805 808 812 816 820 824 827 832 836 838 840 843 845 846 847 848 850 850 851 853 852 852 853 855 853 853 854 855 855 857 857 857 856 855
770 791 788 781 771 775 778 794 787 783 787 795 797 799 802 804 807 812 815 819 821 826 831 835 837 840 842 845 846 847 847 848 849 850 851 852 852 852 853 853 853 854 855 854 854 854 855 855 855
789 784 787 787 775 776 779 784 786 785 785 791 793 796 800 801 804 809 813 816 820 824 829 833 836 839 842 844 845 846 847 847 848 848 849 850 851 852 853 853 853 854 854 854 855 855 855 855 856
772 779 785 780 773 778 777 777 780 784 786 787 788 792 795 797 799 804 809 814 817 822 826 830 834 837 841 842 844 844 845 845 846 847 848 849 848 850 852 852 853 854 853 854 855 856 857 856 858
771 777 777 777 774 777 773 777 767 776 781 781 784 786 789 791 793 799 804 809 814 818 822 827 830 835 837 840 842 843 844 844 845 846 847 848 848 848 850 851 851 853 852 854 855 856 855 856 857
769 774 776 785 774 768 772 773 773 768 773 775 777 778 781 785 788 791 797 802 807 812 817 821 825 830 834 837 840 842 844 845 846 846 846 846 846 847 848 849 851 852 852 852 854 855 855 854 856
777 756 771 780 785 793 770 791 771 770 776 774 773 774 777 780 783 784 788 795 801 805 812 818 822 826 830 834 837 840 841 841 842 843 843 844 845 846 848 849 849 850 851 852 852 853 853 853 853
771 760 768 776 779 779 776 787 769 765 775 770 767 765 766 770 775 779 781 785 793 800 806 812 819 823 827 830 833 837 840 840 841 841 843 843 844 845 846 847 847 848 849 851 852 853 853 853 852
755 768 770 770 775 798 769 781 765 761 761 756 752 756 756 759 764 771 778 784 790 797 804 809 814 819 824 827 830 834 836 839 839 841 841 842 842 844 846 846 848 849 850 851 851 852 853 854 854
770 776 799 806 800 799 763 782 757 745 745 749 747 746 750 753 758 765 772 779 787 794 800 806 810 815 819 824 827 830 834 836 838 840 840 840 840 842 843 845 846 847 849 850 851 851 852 853 855
770 767 784 819 801 785 770 791 762 741 739 740 740 736 743 748 752 760 765 773 781 788 794 800 806 811 815 819 823 827 831 834 836 837 837 838 838 839 842 843 844 846 848 849 850 851 851 852 854
764 777 748 769 767 785 765 761 742 737 741 742 740 739 743 745 748 752 758 765 774 783 790 796 802 808 814 819 823 827 830 831 831 834 836 837 838 839 840 842 843 844 846 847 848 849 850 852 853
754 745 781 772 805 812 777 779 771 751 743 742 744 742 740 742 746 749 755 761 768 777 784 793 800 808 813 817 821 821 822 827 829 831 832 834 834 837 838 840 840 842 843 844 845 847 848 849 851
764 765 760 751 762 788 794 776 731 738 735 740 742 744 743 741 742 745 752 762 767 774 780 790 800 805 811 814 813 813 817 820 824 826 828 830 831 833 834 836 838 839 840 841 842 843 845 846 848
736 749 747 774 781 769 772 773 723 731 736 738 740 741 742 743 741 744 750 760 767 773 780 789 795 799 794 792 794 805 809 815 817 820 822 824 826 828 830 832 833 835 836 838 839 841 843 845 847
Wind_Speed
6 4 2 6 3 9 15 13 14 12 10 12 9 7 16 12 7 13 26 21 16 15 16 16 19 20 20 22 21 21 17 16 17 17 14 12 13 12 11 10 11 11 10 10 9 9 9 10 10
4 0 5 4 7 12 11 11 12 12 13 15 12 10 11 16 17 20 20 18 17 16 17 17 18 19 19 20 20 18 17 15 16 15 12 11 9 10 9 9 9 9 8 7 6 7 7 8 8
2 2 3 3 11 13 12 10 10 14 12 8 6 12 7 8 20 18 23 21 19 18 16 16 17 17 16 17 16 17 17 15 13 14 11 10 9 6 7 7 7 6 5 4 6 5 5 4 6
2 5 4 10 16 17 14 10 11 12 9 9 11 12 9 13 11 20 23 20 18 17 17 16 16 16 16 16 14 15 13 12 12 12 10 8 8 6 5 5 4 3 2 1 3 5 5 4 5
3 4 11 14 16 14 13 8 7 8 7 9 4 12 14 7 14 25 21 19 18 17 16 14 13 13 14 14 14 13 12 12 11 10 9 8 6 5 5 4 3 2 1 3 4 5 5 6 7
3 3 10 12 13 10 11 9 7 10 10 11 15 19 12 14 22 22 20 18 16 16 15 12 11 12 12 11 11 10 9 10 9 8 8 7 7 5 5 4 3 3 2 3 5 6 6 8 9
5 9 11 14 11 10 9 7 9 10 11 13 17 14 13 20 22 19 18 18 17 14 14 12 11 9 10 10 9 9 9 8 8 7 6 5 4 4 4 4 2 3 3 4 4 6 6 7 9
3 3 8 6 10 9 7 10 8 11 13 14 17 8 17 22 23 20 17 16 15 14 13 10 10 9 8 8 8 7 7 8 6 5 4 4 5 4 4 3 3 2 1 4 4 5 7 7 7
3 3 9 7 8 8 10 8 5 9 14 7 3 15 23 26 22 20 19 17 13 11 10 11 10 9 8 7 6 4 6 6 5 3 4 2 3 3 1 3 3 5 4 3 4 5 6 6 7
5 8 7 4 5 9 7 6 10 10 11 9 12 18 27 27 23 21 19 18 16 14 11 9 9 9 8 7 6 6 5 6 5 4 4 5 4 3 4 3 2 5 5 6 6 6 5 5 6
8 8 8 6 5 7 7 8 7 10 6 9 18 22 24 25 22 20 17 15 14 13 12 10 10 9 8 6 7 6 6 6 5 4 5 4 3 2 2 2 2 3 4 7 7 7 7 7 6
10 7 6 6 4 7 5 7 7 4 6 11 19 24 22 19 19 19 17 15 14 13 11 11 10 8 7 7 6 6 6 5 5 4 4 2 1 2 3 2 0 1 3 5 6 7 8 7 8
11 8 5 7 6 7 5 4 4 6 10 16 20 21 20 17 18 16 16 15 15 14 13 11 11 10 8 7 6 6 6 6 5 4 4 2 2 2 2 1 1 2 3 3 3 5 6 7 9
3 7 9 6 7 5 3 6 7 8 14 18 20 20 18 17 18 16 15 15 15 14 14 13 12 11 10 8 7 5 5 5 4 4 3 3 1 2 2 1 2 2 2 2 1 1 2 3 6
6 8 9 8 7 4 7 8 2 14 16 19 19 18 17 16 18 17 16 15 16 15 15 14 13 13 12 9 7 6 6 5 4 4 3 3 1 2 1 1 1 2 2 2 2 1 1 1 4
4 4 6 5 7 5 8 8 8 15 17 19 19 16 16 16 18 16 16 15 15 13 14 13 13 13 12 10 9 7 6 5 4 4 3 2 2 3 0 1 1 1 2 2 3 2 2 1 4
3 7 4 5 5 3 6 8 12 14 16 17 17 18 16 16 16 17 16 16 15 14 15 15 14 13 12 11 9 8 6 6 6 5 4 4 2 1 1 0 0 2 1 1 2 3 3 2 4
3 4 3 6 4 4 4 7 13 15 15 16 17 18 17 17 18 20 18 17 16 15 15 15 15 13 12 10 9 8 7 7 6 5 4 5 3 2 1 1 1 2 3 2 1 1 2 3 7
1 2 2 5 4 4 4 5 12 16 16 16 17 17 19 19 20 21 20 19 17 17 17 18 17 16 14 13 11 10 8 6 5 3 3 4 5 4 3 2 2 3 3 1 1 3 5 8 12
8 6 3 6 3 4 2 7 10 17 19 18 17 18 18 18 18 21 21 20 21 20 20 20 20 19 17 14 12 9 7 6 4 3 4 4 6 3 4 4 3 4 3 3 2 5 7 8 6
13 11 2 5 3 6 8 8 8 15 15 17 17 17 17 18 19 19 22 22 21 22 23 24 23 21 19 17 12 9 7 7 7 7 6 6 6 6 4 4 5 5 5 3 3 8 7 8 6
16 3 4 3 6 4 3 1 9 11 15 18 17 19 18 19 19 18 23 24 22 23 21 21 21 21 19 18 15 13 10 10 9 8 6 6 7 7 6 5 6 4 4 3 3 8 7 4 8
16 0 3 3 10 7 10 7 9 9 10 15 19 20 20 21 20 19 20 23 23 21 20 20 20 20 19 19 19 15 14 10 9 9 6 6 6 7 6 6 5 4 5 5 4 5 8 8 7
8 8 10 8 10 10 7 7 9 10 5 4 10 19 22 21 21 20 22 19 19 18 17 17 19 19 19 19 19 18 14 12 9 9 10 9 7 8 8 8 7 6 6 6 5 5 6 7 7
12 14 11 12 11 10 6 6 10 5 5 1 3 16 21 20 19 18 18 20 19 19 18 18 18 20 20 20 19 19 17 14 13 11 12 11 8 8 8 10 8 7 7 7 6 5 5 4 6
16 18 11 10 11 8 5 7 3 3 4 3 3 12 19 20 18 19 20 23 22 21 21 21 20 19 20 21 20 18 17 15 15 13 12 12 11 8 4 9 9 8 8 7 7 5 4 4 5
15 15 16 18 4 8 4 5 10 3 3 2 6 9 16 18 19 21 21 24 23 22 21 22 21 18 16 14 14 15 16 18 17 15 13 13 12 10 7 8 9 9 9 9 8 6 5 4 4
10 16 10 10 12 10 9 6 9 7 6 4 8 8 12 15 16 16 15 20 22 22 21 18 17 14 13 10 11 17 19 19 19 17 17 15 13 11 9 10 10 10 11 11 10 8 8 7 6
10 9 12 10 7 9 9 7 8 5 5 6 7 5 5 8 12 14 15 16 17 18 21 18 17 18 19 7 18 22 19 19 18 18 18 17 16 14 13 12 12 12 13 13 13 12 10 10 8
15 19 16 11 13 10 11 10 4 3 5 7 6 5 4 3 7 11 14 15 15 16 18 19 23 26 29 32 30 24 20 21 18 18 18 18 18 17 17 16 15 15 15 15 15 14 11 10 9
Wind_Direction
122 152 230 236 137 76 77 77 101 109 92 87 76 77 75 29 5 101 135 160 152 142 132 125 123 127 135 130 128 132 127 132 136 134 133 129 126 117 110 108 101 94 91 86 85 86 85 91 94
141 182 253 266 81 79 74 101 90 78 102 111 90 73 71 78 94 121 133 146 141 130 127 128 130 129 130 129 132 135 131 136 139 136 142 138 129 130 125 122 119 111 100 94 96 97 96 103 106
150 313 283 51 53 60 76 77 96 109 122 86 97 78 57 96 122 128 133 136 133 129 127 131 132 129 129 129 132 132 132 142 143 144 147 149 144 146 149 147 141 126 119 118 106 107 120 105 119
285 200 215 67 76 68 74 84 107 119 106 81 111 84 92 121 119 130 139 138 133 132 126 131 130 132 135 132 134 129 134 143 147 150 155 166 157 161 166 163 161 162 168 151 123 154 146 156 144
272 245 88 81 85 77 76 75 109 117 97 114 125 124 114 105 134 135 142 141 136 128 131 136 135 136 134 131 129 128 139 142 152 154 163 164 166 174 180 172 176 180 170 180 185 163 167 169 157
201 275 81 86 90 77 60 78 107 100 114 102 115 123 118 124 141 146 146 140 136 131 129 127 134 130 127 125 129 136 139 142 147 157 167 168 164 172 168 154 151 129 133 134 164 156 162 166 151
339 63 76 92 105 89 68 61 82 102 115 112 130 124 129 146 149 150 147 145 142 139 131 135 133 125 123 133 136 131 144 145 151 147 164 154 157 175 174 159 153 134 142 130 134 151 152 157 158
301 84 86 62 82 92 98 85 89 86 91 121 132 153 158 151 153 150 150 153 150 145 142 142 140 135 136 135 135 144 149 145 142 140 144 154 178 175 167 153 149 117 161 159 147 145 152 159 172
265 96 71 63 58 117 128 105 73 107 133 97 88 144 145 150 155 155 158 159 158 159 159 159 153 149 144 141 156 141 149 153 141 128 171 137 184 162 172 207 149 193 193 194 165 157 161 162 170
346 48 62 48 86 128 143 118 127 143 124 115 119 115 144 155 162 165 169 166 169 166 173 166 159 158 154 155 151 162 161 151 155 163 167 190 190 191 174 180 164 207 178 199 182 174 178 169 178
32 89 121 89 67 141 129 139 147 146 164 138 144 143 155 162 170 174 175 172 171 172 177 178 175 175 170 160 167 173 169 163 165 183 203 196 200 212 243 237 223 226 211 189 182 183 187 199 191
96 97 106 117 128 154 163 136 144 68 67 129 148 151 160 171 175 178 179 175 176 184 183 183 184 186 182 177 173 172 170 172 173 180 200 223 214 304 326 312 33 132 156 153 174 185 194 191 190
106 109 93 139 119 136 145 164 103 107 116 129 146 156 166 175 176 180 179 178 184 187 190 188 187 191 190 186 178 180 178 172 173 183 210 249 338 350 308 337 63 93 128 129 148 168 199 203 189
112 118 117 136 126 117 176 137 155 130 137 143 156 165 168 174 174 173 184 186 189 192 190 185 186 187 184 186 182 176 176 175 177 192 203 232 264 334 345 63 94 93 123 125 95 28 133 142 178
151 135 140 147 152 136 128 154 175 146 155 155 167 171 172 175 171 174 181 187 190 191 185 185 184 183 182 181 183 182 184 176 189 199 211 239 282 289 309 95 117 126 145 141 149 214 96 230 203
146 169 145 141 192 156 226 114 143 159 167 166 171 172 176 181 179 175 176 183 181 189 187 186 186 185 186 186 188 199 209 211 215 222 226 220 237 261 354 203 130 125 161 161 144 138 103 85 189
199 94 58 133 187 165 244 115 156 174 176 172 177 180 184 184 189 184 183 184 182 186 184 192 194 196 194 200 206 214 231 234 230 235 247 242 252 311 349 325 325 233 228 235 159 139 131 133 111
84 108 113 31 85 234 215 126 167 182 189 180 185 185 192 194 193 192 193 190 190 189 188 195 198 198 201 206 212 216 230 233 236 243 245 233 219 212 265 265 222 231 224 194 122 76 120 99 126
300 317 23 85 34 266 245 248 172 183 196 190 188 191 196 200 196 194 199 197 198 198 197 200 200 199 197 205 208 212 220 214 228 239 229 222 216 207 207 241 243 221 235 159 144 136 139 108 119
237 266 115 129 67 266 227 261 188 183 197 200 196 192 198 197 196 195 195 199 203 204 206 205 206 203 202 209 214 223 221 219 245 237 220 222 207 206 218 224 232 226 226 189 186 185 155 144 154
239 255 47 347 333 244 292 231 180 190 199 201 205 204 198 199 197 191 196 201 202 205 207 208 208 204 205 207 210 218 226 233 238 234 242 237 222 216 235 228 235 231 231 206 196 188 190 172 188
247 128 192 249 280 325 324 296 176 169 202 206 207 201 204 203 203 203 198 201 204 209 209 213 210 206 206 204 209 214 224 232 232 241 249 242 235 226 223 223 214 204 201 213 203 200 206 232 180
254 215 217 240 265 264 193 261 111 158 193 208 211 210 209 195 204 205 206 199 204 206 208 211 212 209 204 205 206 212 222 229 235 238 251 246 224 218 221 223 221 207 203 211 208 202 214 216 251
245 231 220 241 269 267 216 254 170 152 91 156 194 203 207 205 202 202 205 203 206 206 208 208 205 207 205 202 206 207 216 227 235 235 245 247 230 225 224 217 217 211 207 211 205 210 223 236 240
209 226 233 227 228 243 109 235 267 52 47 152 224 189 199 201 201 204 204 198 201 203 204 204 201 199 198 203 203 206 211 219 232 237 242 251 241 237 228 221 219 220 208 211 210 226 237 241 250
217 228 229 217 241 240 142 238 217 72 350 347 208 178 188 195 197 200 203 202 199 199 198 197 198 198 198 198 206 206 209 219 231 237 243 236 245 249 239 220 216 214 208 209 215 230 232 240 247
192 228 245 272 231 284 247 194 272 161 119 77 138 156 182 192 195 194 197 201 195 195 197 196 192 194 199 203 208 218 221 222 223 231 235 238 243 250 238 219 212 210 207 208 214 220 228 228 242
259 213 208 234 256 242 243 232 277 201 293 148 154 179 170 190 196 196 195 197 192 192 192 189 187 176 179 191 216 215 215 226 229 227 233 235 236 240 234 227 220 218 212 209 209 219 217 211 220
195 208 235 281 237 276 257 248 263 285 305 186 147 178 180 202 189 196 186 188 185 184 179 174 161 158 141 122 271 214 220 216 225 230 234 238 238 235 231 227 228 225 221 214 214 217 214 212 216
232 217 217 224 218 242 286 291 10 119 150 162 134 133 129 184 182 183 168 161 166 173 164 160 160 168 182 206 211 222 218 223 219 228 228 234 236 235 237 230 226 226 226 222 219 220 222 220 221